Date,Time,Wetness (Wet Dry or Ice),Wind Speed (m/s),Temperature (C),Humidity (%),Pressure (mb),Radiation (W/m^2)
2020-12-15,22:25:00,DRY,1.65,7.10,7.0,774.00,1.5
2020-12-15,22:30:00,DRY,1.77,6.73,8.3,774.00,1.1
2020-12-15,22:35:00,DRY,1.90,6.80,9.0,774.00,1.1
2020-12-15,22:40:00,DRY,1.53,7.30,7.3,774.00,1.6
2020-12-15,22:45:00,DRY,1.75,7.80,6.0,774.00,0.4
2020-12-15,22:50:00,DRY,1.50,7.90,6.0,774.00,1.1
2020-12-15,22:55:00,DRY,1.75,7.85,5.0,774.00,1.8
2020-12-15,23:00:00,DRY,1.80,7.83,4.3,774.00,0.5
2020-12-15,23:05:00,DRY,2.15,8.30,5.0,774.00,1.6
2020-12-15,23:10:00,DRY,1.73,8.83,4.0,774.00,1.5
2020-12-15,23:15:00,DRY,1.85,8.70,4.0,774.00,1.8
2020-12-15,23:20:00,DRY,2.00,8.80,4.0,774.00,1.6
2020-12-15,23:25:00,DRY,2.30,8.40,5.5,774.00,1.1
2020-12-15,23:30:00,DRY,1.57,7.70,5.7,774.00,1.1
2020-12-15,23:35:00,DRY,1.45,7.90,4.5,774.00,1.1
2020-12-15,23:40:00,DRY,1.20,7.87,5.3,774.00,1.2
2020-12-15,23:45:00,DRY,1.45,8.30,6.0,774.00,0.7
2020-12-15,23:50:00,DRY,1.97,7.53,7.0,774.00,0.3
2020-12-15,23:55:00,DRY,1.10,7.00,5.5,774.00,1.1
2020-12-16,00:00:00,DRY,0.70,6.77,3.0,774.00,1.2
2020-12-16,00:05:00,DRY,1.30,6.70,6.5,774.00,0.9
2020-12-16,00:10:00,DRY,1.13,7.33,7.0,774.00,1.3
2020-12-16,00:15:00,DRY,1.70,7.15,7.5,774.00,0.9
2020-12-16,00:20:00,DRY,2.67,7.33,7.0,774.33,1.2
2020-12-16,00:25:00,DRY,3.25,7.15,7.5,775.00,1.0
2020-12-16,00:30:00,DRY,3.53,6.83,8.0,774.67,1.0
2020-12-16,00:35:00,DRY,4.05,6.65,6.5,774.00,0.8
2020-12-16,00:40:00,DRY,3.73,6.27,3.3,774.33,1.1
2020-12-16,00:45:00,DRY,3.40,6.25,3.0,774.00,1.1
2020-12-16,00:50:00,DRY,3.50,6.40,4.0,774.00,1.5
2020-12-16,00:55:00,DRY,3.70,6.70,6.0,774.00,1.4
2020-12-16,01:00:00,DRY,3.77,6.60,8.0,774.00,1.1
2020-12-16,01:05:00,DRY,3.85,6.30,8.0,774.50,1.2
2020-12-16,01:10:00,DRY,3.47,6.53,5.7,774.00,1.4
2020-12-16,01:15:00,DRY,3.10,6.85,6.0,774.00,1.4
2020-12-16,01:20:00,DRY,3.97,6.80,5.7,774.33,1.2
2020-12-16,01:25:00,DRY,3.80,6.65,5.5,774.00,1.1
2020-12-16,01:30:00,DRY,4.40,5.87,6.7,774.00,1.2
2020-12-16,01:35:00,DRY,3.80,5.50,7.0,774.00,1.4
2020-12-16,01:40:00,DRY,3.57,5.73,7.3,774.00,1.2
2020-12-16,01:45:00,DRY,3.20,5.70,7.0,774.00,0.9
2020-12-16,01:50:00,DRY,2.77,6.07,6.3,774.00,1.4
2020-12-16,01:55:00,DRY,4.00,5.95,8.0,774.00,0.9
2020-12-16,02:00:00,DRY,3.20,5.97,7.7,774.00,1.4
2020-12-16,02:05:00,DRY,3.15,5.65,7.5,774.00,1.4
2020-12-16,02:10:00,DRY,4.13,5.60,8.0,774.00,1.1
2020-12-16,02:15:00,DRY,3.50,5.35,8.0,774.00,1.4
2020-12-16,02:20:00,DRY,4.03,5.23,7.0,774.00,1.2
2020-12-16,02:25:00,DRY,3.95,4.95,7.5,774.00,1.2
2020-12-16,02:30:00,DRY,2.97,5.27,6.3,774.00,0.9
2020-12-16,02:35:00,DRY,2.95,5.70,7.0,774.00,1.1
2020-12-16,02:40:00,DRY,3.30,5.93,7.7,774.00,1.1
2020-12-16,02:45:00,DRY,3.45,5.90,8.0,774.00,1.8
2020-12-16,02:50:00,DRY,3.87,5.47,9.0,774.00,1.5
2020-12-16,02:55:00,DRY,3.15,4.80,11.5,774.00,2.1
2020-12-16,03:00:00,DRY,3.23,4.43,12.0,774.00,1.0
2020-12-16,03:05:00,DRY,3.25,4.90,11.0,774.00,1.8
2020-12-16,03:10:00,DRY,5.03,4.37,13.7,774.00,1.4
2020-12-16,03:15:00,DRY,5.10,4.30,14.0,774.00,1.2
2020-12-16,03:20:00,DRY,4.33,4.10,15.0,774.00,1.2
2020-12-16,03:25:00,DRY,3.75,4.05,15.0,774.00,0.8
2020-12-16,03:30:00,DRY,5.10,4.50,14.3,774.00,1.0
2020-12-16,03:35:00,DRY,6.20,4.70,14.0,774.00,1.1
2020-12-16,03:40:00,DRY,6.63,4.90,14.0,774.00,1.2
2020-12-16,03:45:00,DRY,6.15,4.75,15.0,774.00,1.5
2020-12-16,03:50:00,DRY,5.47,4.87,15.0,774.00,1.3
2020-12-16,03:55:00,DRY,4.85,5.10,14.0,774.00,1.6
2020-12-16,04:00:00,DRY,4.70,5.33,13.0,774.00,1.2
2020-12-16,04:05:00,DRY,4.95,5.35,13.0,774.00,1.1
2020-12-16,04:10:00,DRY,4.47,5.47,12.3,774.00,1.4
2020-12-16,04:15:00,DRY,4.45,5.45,12.0,774.00,1.1
2020-12-16,04:20:00,DRY,4.33,5.50,12.0,774.00,1.1
2020-12-16,04:25:00,DRY,4.30,5.80,12.0,774.00,1.2
2020-12-16,04:30:00,DRY,4.30,6.10,11.0,774.00,1.8
2020-12-16,04:35:00,DRY,4.20,6.10,11.5,774.00,2.2
2020-12-16,04:40:00,DRY,5.53,6.10,11.3,774.00,1.2
2020-12-16,04:45:00,DRY,5.65,6.35,11.0,774.00,1.4
2020-12-16,04:50:00,DRY,5.77,6.17,11.7,774.00,1.1
2020-12-16,04:55:00,DRY,6.75,5.80,13.5,774.00,1.1
2020-12-16,05:00:00,DRY,6.63,5.70,13.3,774.00,1.5
2020-12-16,05:05:00,DRY,5.80,5.75,13.5,774.00,1.1
2020-12-16,05:10:00,DRY,5.13,5.67,15.0,774.00,1.0
2020-12-16,05:15:00,DRY,5.30,5.80,15.0,774.00,1.5
2020-12-16,05:20:00,DRY,6.00,5.65,16.0,774.00,1.1
2020-12-16,05:25:00,DRY,6.30,5.95,15.5,774.00,0.6
2020-12-16,05:30:00,DRY,6.33,6.03,15.0,774.00,1.3
2020-12-16,05:35:00,DRY,5.50,5.85,16.0,774.00,1.1
2020-12-16,05:40:00,DRY,6.50,5.90,18.0,774.00,1.2
2020-12-16,05:45:00,DRY,7.10,5.85,19.0,774.00,1.1
2020-12-16,05:50:00,DRY,6.73,5.63,19.3,774.00,1.2
2020-12-16,05:55:00,DRY,5.85,5.70,20.5,774.00,1.2
2020-12-16,06:00:00,DRY,6.07,5.63,20.3,774.00,1.0
2020-12-16,06:05:00,DRY,6.75,5.45,20.5,774.00,1.4
2020-12-16,06:10:00,DRY,6.67,5.67,21.0,774.00,1.2
2020-12-16,06:15:00,DRY,7.40,6.05,21.5,774.00,1.2
2020-12-16,06:20:00,DRY,7.60,5.87,22.0,774.00,1.3
2020-12-16,06:25:00,DRY,6.25,6.10,21.5,774.00,1.1
2020-12-16,06:30:00,DRY,6.33,5.57,21.3,774.00,1.6
2020-12-16,06:35:00,DRY,6.30,5.40,22.0,774.00,1.6
2020-12-16,06:40:00,DRY,7.17,5.57,23.3,774.00,1.5
2020-12-16,06:45:00,DRY,6.45,5.60,23.0,774.00,1.2
2020-12-16,06:50:00,DRY,6.43,5.33,23.0,775.00,1.4
2020-12-16,06:55:00,DRY,5.35,5.15,22.0,775.00,1.2
2020-12-16,07:00:00,DRY,5.77,4.63,21.7,775.00,1.2
2020-12-16,07:05:00,DRY,6.00,5.10,24.0,775.00,1.4
2020-12-16,07:10:00,DRY,5.63,4.93,24.7,775.00,1.3
2020-12-16,07:15:00,DRY,6.75,5.65,21.5,775.00,1.1
2020-12-16,07:20:00,DRY,6.67,5.70,21.7,775.00,1.1
2020-12-16,07:25:00,DRY,5.55,5.55,22.5,775.00,1.0
2020-12-16,07:30:00,DRY,6.87,5.27,23.7,775.00,1.1
2020-12-16,07:35:00,DRY,7.10,5.65,22.5,775.00,1.5
2020-12-16,07:40:00,DRY,5.90,5.30,23.3,775.00,1.6
2020-12-16,07:45:00,DRY,6.70,5.50,22.0,775.00,3.2
2020-12-16,07:50:00,DRY,5.90,5.90,20.3,775.00,5.7
2020-12-16,07:55:00,DRY,7.70,5.80,20.5,775.00,4.8
2020-12-16,08:00:00,DRY,7.57,5.60,22.3,775.00,6.4
2020-12-16,08:05:00,DRY,6.60,5.55,22.5,775.00,13.3
2020-12-16,08:10:00,DRY,6.57,5.53,22.7,775.00,26.8
2020-12-16,08:15:00,DRY,5.85,5.60,22.5,775.00,37.6
2020-12-16,08:20:00,DRY,6.57,5.43,24.0,775.00,50.7
2020-12-16,08:25:00,DRY,6.35,5.50,22.5,775.00,54.8
2020-12-16,08:30:00,DRY,5.93,5.73,21.7,775.00,56.1
2020-12-16,08:35:00,DRY,5.60,5.50,22.0,775.00,63.7
2020-12-16,08:40:00,DRY,5.80,5.50,22.3,775.00,68.3
2020-12-16,08:45:00,DRY,6.40,5.40,22.5,775.50,65.8
2020-12-16,08:50:00,DRY,5.93,5.40,23.7,775.00,60.8
2020-12-16,08:55:00,DRY,5.75,5.35,24.0,775.50,91.8
2020-12-16,09:00:00,DRY,6.67,5.53,23.3,776.00,247.8
2020-12-16,09:05:00,DRY,6.35,5.60,23.5,776.00,311.2
2020-12-16,09:10:00,DRY,6.43,5.70,23.0,776.00,303.2
2020-12-16,09:15:00,DRY,5.75,5.55,25.0,776.00,290.4
2020-12-16,09:20:00,DRY,6.17,5.43,25.7,776.00,318.0
2020-12-16,09:25:00,DRY,6.30,5.30,26.5,776.00,348.8
2020-12-16,09:30:00,DRY,6.63,5.47,24.7,776.00,353.5
2020-12-16,09:35:00,DRY,7.45,5.55,23.0,776.00,311.5
2020-12-16,09:40:00,DRY,6.97,5.47,23.0,776.00,364.0
2020-12-16,09:45:00,DRY,5.85,5.70,22.0,776.00,372.9
2020-12-16,09:50:00,DRY,7.10,5.80,22.7,776.00,432.1
2020-12-16,09:55:00,DRY,7.15,5.80,23.5,776.00,363.1
2020-12-16,10:00:00,DRY,6.83,5.77,23.3,776.00,346.3
2020-12-16,10:05:00,DRY,6.90,5.80,24.5,776.00,435.1
2020-12-16,10:10:00,DRY,6.53,6.03,23.7,776.00,493.0
2020-12-16,10:15:00,DRY,7.35,6.25,22.5,776.00,468.1
2020-12-16,10:20:00,DRY,5.73,6.47,22.0,776.33,484.0
2020-12-16,10:25:00,DRY,6.95,6.35,24.0,776.00,545.1
2020-12-16,10:30:00,DRY,6.90,6.50,22.0,776.33,496.7
2020-12-16,10:35:00,DRY,7.45,6.45,18.5,776.50,422.0
2020-12-16,10:40:00,DRY,6.37,6.27,20.7,776.67,412.1
2020-12-16,10:45:00,DRY,5.90,6.15,21.0,777.00,464.5
2020-12-16,10:50:00,DRY,5.77,6.10,23.0,777.00,462.2
2020-12-16,10:55:00,DRY,5.85,6.00,26.0,776.50,513.6
2020-12-16,11:00:00,DRY,7.90,5.83,24.7,777.00,500.5
2020-12-16,11:05:00,DRY,7.10,5.70,25.0,777.00,538.5
2020-12-16,11:10:00,DRY,6.07,5.70,25.7,777.00,438.3
2020-12-16,11:15:00,DRY,7.20,5.70,24.0,777.00,544.9
2020-12-16,11:20:00,DRY,6.10,5.50,27.3,776.67,507.6
2020-12-16,11:25:00,DRY,6.95,5.70,24.0,777.00,650.3
2020-12-16,11:30:00,DRY,6.93,6.03,22.7,777.00,672.6
2020-12-16,11:35:00,DRY,5.70,6.10,22.0,777.00,614.2
2020-12-16,11:40:00,DRY,4.87,6.30,24.0,777.00,678.3
2020-12-16,11:45:00,DRY,6.35,6.35,24.0,777.00,706.9
2020-12-16,11:50:00,DRY,5.20,6.43,25.0,777.00,645.1
2020-12-16,11:55:00,DRY,6.45,6.90,23.5,777.00,737.3
2020-12-16,12:00:00,DRY,6.03,7.07,22.3,776.67,709.3
2020-12-16,12:05:00,DRY,5.45,6.85,27.0,776.00,631.8
2020-12-16,12:10:00,DRY,5.87,6.60,27.0,776.00,616.7
2020-12-16,12:15:00,DRY,4.80,6.75,26.5,776.00,715.0
2020-12-16,12:20:00,DRY,6.00,7.03,21.7,776.00,750.3
2020-12-16,12:25:00,DRY,7.40,7.20,26.0,776.00,727.0
2020-12-16,12:30:00,DRY,6.77,7.07,37.7,776.00,718.2
2020-12-16,12:35:00,DRY,8.00,7.15,38.0,776.00,736.0
2020-12-16,12:40:00,DRY,7.33,7.03,50.7,776.00,781.5
2020-12-16,12:45:00,DRY,6.75,7.00,57.0,776.00,805.5
2020-12-16,12:50:00,DRY,6.60,6.83,60.7,776.00,765.8
2020-12-16,12:55:00,DRY,6.95,6.75,63.5,776.00,711.7
2020-12-16,13:00:00,DRY,7.70,6.37,68.7,776.00,752.2
2020-12-16,13:05:00,DRY,7.55,6.45,69.0,776.00,737.3
2020-12-16,13:10:00,DRY,7.75,6.55,68.0,776.00,764.2
2020-12-16,13:15:00,DRY,6.55,6.45,70.5,776.00,778.0
2020-12-16,13:20:00,DRY,5.43,6.50,70.3,776.00,774.2
2020-12-16,13:25:00,DRY,7.50,6.70,70.0,776.00,770.8
2020-12-16,13:30:00,DRY,6.50,6.70,68.0,776.00,778.8
2020-12-16,13:35:00,DRY,4.80,6.60,71.0,776.00,742.2
2020-12-16,13:40:00,DRY,7.27,6.73,70.3,776.00,744.2
2020-12-16,13:45:00,DRY,6.45,6.55,73.5,776.00,724.2
2020-12-16,13:50:00,DRY,7.50,6.57,70.7,776.00,723.8
2020-12-16,13:55:00,DRY,5.20,6.40,73.5,776.00,688.0
2020-12-16,14:00:00,DRY,5.67,6.30,74.0,776.00,728.1
2020-12-16,14:05:00,DRY,4.20,6.25,76.5,776.00,697.5
2020-12-16,14:10:00,DRY,5.77,6.30,78.3,776.00,703.6
2020-12-16,14:15:00,DRY,7.10,6.40,74.0,776.00,674.6
2020-12-16,14:20:00,DRY,7.00,6.17,74.0,776.00,641.5
2020-12-16,14:25:00,DRY,6.75,6.40,73.5,775.50,647.2
2020-12-16,14:30:00,DRY,6.50,6.37,74.3,775.33,614.4
2020-12-16,14:35:00,DRY,5.35,6.05,77.0,775.50,615.0
2020-12-16,14:40:00,DRY,6.10,6.10,75.3,775.67,645.4
2020-12-16,14:45:00,DRY,5.95,6.15,77.0,776.00,618.1
2020-12-16,14:50:00,DRY,5.83,6.03,77.7,775.67,641.5
2020-12-16,14:55:00,DRY,6.95,6.00,77.0,775.50,629.7
2020-12-16,15:00:00,DRY,5.37,5.73,80.7,776.00,627.1
2020-12-16,15:05:00,DRY,7.70,5.65,80.0,775.00,616.8
2020-12-16,15:10:00,DRY,6.97,6.20,74.3,775.00,598.5
2020-12-16,15:15:00,DRY,6.35,6.00,79.0,775.50,600.8
2020-12-16,15:20:00,DRY,5.97,6.00,78.7,776.00,592.5
2020-12-16,15:25:00,DRY,7.15,5.60,83.0,776.00,577.0
2020-12-16,15:30:00,DRY,6.43,5.37,86.0,775.67,557.4
2020-12-16,15:35:00,DRY,6.10,5.00,91.0,776.00,421.9
2020-12-16,15:40:00,DRY,6.90,4.90,91.7,776.00,527.8
2020-12-16,15:45:00,DRY,7.55,5.00,90.5,776.00,517.8
2020-12-16,15:50:00,DRY,6.47,5.17,88.7,776.00,501.4
2020-12-16,15:55:00,DRY,6.20,5.05,90.0,776.00,486.5
2020-12-16,16:00:00,DRY,6.77,5.20,85.3,776.00,470.0
2020-12-16,16:05:00,DRY,4.90,5.00,91.0,776.00,464.4
2020-12-16,16:10:00,DRY,6.03,4.60,94.3,776.00,424.7
2020-12-16,16:15:00,DRY,6.65,4.90,89.0,776.00,418.6
2020-12-16,16:20:00,DRY,7.03,5.37,81.7,776.00,396.7
2020-12-16,16:25:00,DRY,7.40,5.15,86.0,776.00,382.2
2020-12-16,16:30:00,DRY,5.87,5.00,88.0,776.00,366.4
2020-12-16,16:35:00,DRY,6.95,5.15,86.0,776.00,348.9
2020-12-16,16:40:00,DRY,7.13,5.27,83.3,776.00,330.1
2020-12-16,16:45:00,DRY,8.05,5.65,71.0,776.00,312.6
2020-12-16,16:50:00,DRY,6.87,5.83,64.3,776.00,294.0
2020-12-16,16:55:00,DRY,8.25,5.80,60.5,776.00,277.0
2020-12-16,17:00:00,DRY,7.67,5.73,55.3,776.00,258.1
2020-12-16,17:05:00,DRY,7.90,5.70,51.0,776.00,237.9
2020-12-16,17:10:00,DRY,7.70,5.60,60.3,776.00,218.7
2020-12-16,17:15:00,DRY,7.35,5.40,59.0,776.00,199.9
2020-12-16,17:20:00,DRY,7.47,5.43,56.3,776.00,184.2
2020-12-16,17:25:00,DRY,7.40,5.35,59.0,776.00,168.6
2020-12-16,17:30:00,DRY,6.63,5.13,64.3,776.00,149.6
2020-12-16,17:35:00,DRY,6.90,5.00,70.0,776.00,127.7
2020-12-16,17:40:00,DRY,7.23,5.00,58.3,776.00,101.8
2020-12-16,17:45:00,DRY,6.45,5.45,51.5,776.50,79.8
2020-12-16,17:50:00,DRY,6.73,5.37,44.7,776.67,60.2
2020-12-16,17:55:00,DRY,6.90,5.25,47.0,776.00,43.5
2020-12-16,18:00:00,DRY,6.70,4.93,52.7,776.00,30.4
2020-12-16,18:05:00,DRY,7.10,4.80,57.0,776.00,20.2
2020-12-16,18:10:00,DRY,8.50,5.00,57.3,776.00,15.6
2020-12-16,18:15:00,DRY,7.75,4.60,59.5,776.00,11.9
2020-12-16,18:20:00,DRY,8.53,4.80,58.3,776.33,7.9
2020-12-16,18:25:00,DRY,8.65,4.95,57.0,776.00,4.7
2020-12-16,18:30:00,DRY,9.00,5.43,48.0,776.00,2.7
2020-12-16,18:35:00,DRY,7.70,4.90,57.5,777.00,1.9
2020-12-16,18:40:00,DRY,9.77,5.17,60.0,776.67,1.4
2020-12-16,18:45:00,DRY,8.35,5.10,65.0,776.50,1.1
2020-12-16,18:50:00,DRY,9.90,4.67,67.7,776.67,0.9
2020-12-16,18:55:00,DRY,8.65,4.75,64.0,777.00,1.4
2020-12-16,19:00:00,DRY,9.57,4.57,72.0,777.00,1.0
2020-12-16,19:05:00,DRY,7.85,4.45,67.5,777.00,0.9
2020-12-16,19:10:00,DRY,9.30,4.40,65.3,777.00,2.1
2020-12-16,19:15:00,DRY,7.70,4.05,67.5,777.00,1.7
2020-12-16,19:20:00,DRY,9.30,4.00,70.5,777.00,1.5
2020-12-16,19:25:00,,,,,,
2020-12-16,19:30:00,,,,,,
2020-12-16,19:35:00,,,,,,
2020-12-16,19:40:00,DRY,8.20,3.70,76.0,777.00,1.3
2020-12-16,19:45:00,DRY,8.80,3.85,72.0,777.00,1.2
2020-12-16,19:50:00,DRY,7.30,4.20,64.0,777.00,1.3
2020-12-16,19:55:00,DRY,8.45,4.60,60.0,777.00,1.2
2020-12-16,20:00:00,DRY,6.83,5.00,53.7,777.00,1.3
2020-12-16,20:05:00,DRY,8.10,4.55,59.5,777.00,1.3
2020-12-16,20:10:00,DRY,7.70,4.17,66.0,777.00,0.6
2020-12-16,20:15:00,DRY,7.90,4.00,67.0,777.00,1.0
2020-12-16,20:20:00,DRY,7.20,4.17,67.3,777.00,1.5
2020-12-16,20:25:00,DRY,3.35,3.70,78.0,777.00,1.9
2020-12-16,20:30:00,DRY,6.73,3.27,82.0,777.00,1.4
2020-12-16,20:35:00,DRY,8.25,3.95,69.0,777.00,1.1
2020-12-16,20:40:00,DRY,9.67,3.93,62.0,777.00,0.4
2020-12-16,20:45:00,DRY,6.85,4.45,52.5,777.00,1.4
2020-12-16,20:50:00,DRY,7.23,4.03,63.3,777.00,1.1
2020-12-16,20:55:00,DRY,7.20,3.50,70.5,777.00,1.2
2020-12-16,21:00:00,DRY,7.87,3.30,76.7,777.00,1.4
2020-12-16,21:05:00,DRY,9.55,4.35,61.0,777.00,1.2
2020-12-16,21:10:00,DRY,9.77,3.87,68.0,777.00,1.2
2020-12-16,21:15:00,DRY,8.70,4.15,55.0,777.00,1.7
2020-12-16,21:20:00,DRY,9.60,3.47,64.3,777.00,1.6
2020-12-16,21:25:00,DRY,8.40,3.70,57.0,777.00,1.2
2020-12-16,21:30:00,DRY,8.30,3.67,58.0,777.00,1.1
2020-12-16,21:35:00,DRY,10.70,3.75,61.5,777.00,1.1
2020-12-16,21:40:00,DRY,10.10,3.47,67.3,777.00,1.0
2020-12-16,21:45:00,DRY,9.25,3.60,69.0,777.00,1.2
2020-12-16,21:50:00,DRY,8.60,2.87,73.0,777.00,1.1
2020-12-16,21:55:00,DRY,10.35,3.15,75.0,777.00,1.2
2020-12-16,22:00:00,DRY,9.60,3.40,72.7,777.00,1.1
2020-12-16,22:05:00,DRY,10.45,3.30,70.0,777.00,1.2
2020-12-16,22:10:00,DRY,9.50,3.13,72.3,777.00,1.0
2020-12-16,22:15:00,DRY,8.85,3.70,60.5,777.00,1.1
2020-12-16,22:20:00,DRY,8.93,3.67,56.0,777.00,0.8
2020-12-16,22:25:00,DRY,9.25,3.65,54.5,777.00,0.8
2020-12-16,22:30:00,DRY,8.90,3.57,54.7,777.00,1.4
2020-12-16,22:35:00,DRY,8.65,3.80,51.5,777.00,1.0
2020-12-16,22:40:00,DRY,9.07,3.63,50.0,777.00,0.8
2020-12-16,22:45:00,DRY,8.70,3.40,50.5,777.00,0.6
2020-12-16,22:50:00,DRY,9.03,3.30,51.3,777.00,1.0
2020-12-16,22:55:00,DRY,9.25,3.65,52.0,777.00,1.8
2020-12-16,23:00:00,DRY,8.33,4.03,57.7,777.00,1.6
2020-12-16,23:05:00,DRY,9.85,4.05,71.5,777.00,1.2
2020-12-16,23:10:00,DRY,8.43,4.13,62.0,777.00,1.0
2020-12-16,23:15:00,DRY,10.60,4.45,75.5,777.00,1.1
2020-12-16,23:20:00,DRY,10.20,4.40,79.7,777.00,1.3
2020-12-16,23:25:00,DRY,8.55,4.15,83.5,777.00,1.2
2020-12-16,23:30:00,DRY,9.70,4.13,88.0,777.00,1.3
2020-12-16,23:35:00,DRY,9.60,4.50,89.5,777.00,1.6
2020-12-16,23:40:00,DRY,8.67,4.30,87.7,777.00,1.4
2020-12-16,23:45:00,DRY,10.60,4.65,88.5,777.00,1.2
2020-12-16,23:50:00,DRY,9.40,4.70,87.0,777.00,0.8
2020-12-16,23:55:00,DRY,8.45,4.75,89.0,777.00,1.1
2020-12-17,00:00:00,DRY,11.07,5.03,88.3,777.00,1.5
2020-12-17,00:05:00,DRY,10.05,5.00,89.5,777.00,1.2
2020-12-17,00:10:00,DRY,9.97,4.63,91.7,777.00,1.5
2020-12-17,00:15:00,DRY,9.55,4.70,91.0,777.00,1.4
2020-12-17,00:20:00,DRY,11.10,5.00,86.7,777.00,1.6
2020-12-17,00:25:00,DRY,10.85,5.30,84.5,777.00,1.2
2020-12-17,00:30:00,DRY,8.47,4.93,88.0,777.00,1.2
2020-12-17,00:35:00,DRY,9.85,4.80,90.0,777.00,1.4
2020-12-17,00:40:00,DRY,10.07,4.67,91.0,777.00,1.5
2020-12-17,00:45:00,DRY,10.30,4.80,90.5,777.00,1.4
2020-12-17,00:50:00,DRY,10.53,4.80,91.3,777.00,1.5
2020-12-17,00:55:00,DRY,12.20,4.70,90.0,777.00,1.8
2020-12-17,01:00:00,DRY,10.07,4.63,88.3,777.00,1.7
2020-12-17,01:05:00,DRY,11.90,4.80,85.0,777.00,1.5
2020-12-17,01:10:00,DRY,11.10,4.83,85.0,777.00,2.1
2020-12-17,01:15:00,DRY,10.75,4.75,86.0,776.00,1.4
2020-12-17,01:20:00,DRY,10.30,4.57,86.7,776.67,1.0
2020-12-17,01:25:00,DRY,11.35,4.65,83.5,776.00,1.5
2020-12-17,01:30:00,DRY,9.23,4.53,86.0,776.33,0.8
2020-12-17,01:35:00,DRY,10.90,4.50,85.5,776.00,1.4
2020-12-17,01:40:00,DRY,10.27,4.43,86.3,776.00,1.5
2020-12-17,01:45:00,DRY,10.25,4.75,83.0,776.00,1.3
2020-12-17,01:50:00,DRY,12.10,4.60,88.0,776.00,1.5
2020-12-17,01:55:00,DRY,10.05,4.50,89.0,776.50,2.2
2020-12-17,02:00:00,DRY,11.33,4.43,91.3,776.00,1.6
2020-12-17,02:05:00,DRY,12.95,4.45,91.0,776.00,2.2
2020-12-17,02:10:00,DRY,9.13,4.10,92.7,776.00,1.4
2020-12-17,02:15:00,DRY,10.25,3.80,95.5,776.00,1.8
2020-12-17,02:20:00,DRY,12.20,4.13,93.7,776.00,1.6
2020-12-17,02:25:00,DRY,9.25,3.65,96.5,776.00,2.0
2020-12-17,02:30:00,DRY,11.97,3.97,96.0,776.00,2.0
2020-12-17,02:35:00,DRY,11.80,3.85,95.5,776.00,2.5
2020-12-17,02:40:00,DRY,14.00,3.77,97.3,776.00,2.2
2020-12-17,02:45:00,DRY,11.00,3.55,99.0,776.00,2.9
2020-12-17,02:50:00,DRY,12.07,3.53,100.0,776.00,4.8
2020-12-17,02:55:00,DRY,12.80,3.50,100.0,776.00,6.3
2020-12-17,03:00:00,DRY,12.40,3.60,100.0,776.00,8.4
2020-12-17,03:05:00,DRY,11.40,3.60,100.0,776.00,10.1
2020-12-17,03:10:00,DRY,12.23,3.50,100.0,776.00,16.1
2020-12-17,03:15:00,DRY,10.25,3.45,100.0,776.00,22.4
2020-12-17,03:20:00,DRY,10.97,3.43,100.0,776.00,25.7
2020-12-17,03:25:00,DRY,10.80,3.30,100.0,776.00,28.9
2020-12-17,03:30:00,DRY,11.30,3.37,100.0,776.00,29.8
2020-12-17,03:35:00,DRY,10.05,3.50,100.0,776.00,30.4
2020-12-17,03:40:00,DRY,9.47,3.13,100.0,776.00,29.8
2020-12-17,03:45:00,DRY,10.60,3.25,100.0,776.00,29.0
2020-12-17,03:50:00,DRY,9.70,3.10,100.0,776.00,27.7
2020-12-17,03:55:00,DRY,10.75,3.10,100.0,776.00,27.1
2020-12-17,04:00:00,DRY,10.97,3.10,100.0,776.00,26.9
2020-12-17,04:05:00,DRY,11.60,3.20,100.0,776.00,26.8
2020-12-17,04:10:00,DRY,10.50,3.10,100.0,776.00,25.7
2020-12-17,04:15:00,DRY,7.30,3.00,100.0,776.00,26.6
2020-12-17,04:20:00,DRY,8.97,3.07,100.0,776.00,27.2
2020-12-17,04:25:00,DRY,8.85,3.05,100.0,776.00,26.2
2020-12-17,04:30:00,DRY,9.53,3.10,100.0,776.00,25.8
2020-12-17,04:35:00,DRY,10.20,3.10,100.0,776.00,25.2
2020-12-17,04:40:00,DRY,12.47,3.07,100.0,775.67,27.4
2020-12-17,04:45:00,DRY,11.05,3.15,100.0,776.00,26.4
2020-12-17,04:50:00,DRY,10.03,3.23,100.0,776.00,23.5
2020-12-17,04:55:00,WET,8.75,3.30,100.0,776.00,23.1
2020-12-17,05:00:00,DRY,10.03,3.27,100.0,776.00,21.7
2020-12-17,05:05:00,DRY,10.35,3.35,99.0,776.00,21.6
2020-12-17,05:10:00,DRY,10.87,4.00,89.0,776.00,21.1
2020-12-17,05:15:00,DRY,11.85,3.55,93.0,776.00,23.9
2020-12-17,05:20:00,DRY,12.40,3.60,92.0,776.00,23.5
2020-12-17,05:25:00,DRY,11.75,3.35,97.5,776.00,26.2
2020-12-17,05:30:00,DRY,9.73,3.30,99.3,776.00,30.4
2020-12-17,05:35:00,DRY,10.35,3.30,98.5,776.00,28.4
2020-12-17,05:40:00,DRY,9.70,3.23,99.3,776.00,30.5
2020-12-17,05:45:00,DRY,12.30,3.25,99.0,776.00,29.6
2020-12-17,05:50:00,DRY,10.60,3.27,100.0,776.00,31.2
2020-12-17,05:55:00,DRY,10.30,3.30,98.5,776.00,28.4
2020-12-17,06:00:00,DRY,9.93,3.13,99.0,776.00,27.5
2020-12-17,06:05:00,DRY,7.85,3.15,96.0,776.00,25.5
2020-12-17,06:10:00,DRY,8.97,3.23,94.0,776.00,23.9
2020-12-17,06:15:00,DRY,9.90,3.10,94.0,776.00,23.1
2020-12-17,06:20:00,DRY,8.87,2.93,94.0,776.00,21.9
2020-12-17,06:25:00,DRY,10.50,2.95,92.5,776.00,20.0
2020-12-17,06:30:00,DRY,10.03,3.03,90.3,776.00,17.5
2020-12-17,06:35:00,DRY,10.65,3.20,86.0,776.00,14.6
2020-12-17,06:40:00,DRY,11.47,3.70,81.3,776.00,11.2
2020-12-17,06:45:00,DRY,9.75,3.40,85.0,776.00,10.1
2020-12-17,06:50:00,DRY,9.83,2.97,88.3,776.00,10.1
2020-12-17,06:55:00,DRY,10.30,3.55,80.5,776.00,9.4
2020-12-17,07:00:00,DRY,9.97,3.37,84.7,776.00,8.7
2020-12-17,07:05:00,DRY,8.80,3.30,84.0,776.00,7.9
2020-12-17,07:10:00,DRY,8.27,3.40,83.7,776.00,6.6
2020-12-17,07:15:00,DRY,9.40,3.35,83.0,776.00,5.7
2020-12-17,07:20:00,DRY,8.47,3.40,82.0,776.00,5.3
2020-12-17,07:25:00,DRY,7.85,3.40,81.0,776.50,4.7
2020-12-17,07:30:00,DRY,11.00,3.57,79.3,776.00,3.9
2020-12-17,07:35:00,DRY,10.40,3.45,80.5,776.50,3.5
2020-12-17,07:40:00,DRY,11.60,4.33,72.3,776.00,2.8
2020-12-17,07:45:00,DRY,11.75,4.85,68.5,776.50,3.1
2020-12-17,07:50:00,DRY,12.43,5.17,64.7,776.00,4.1
2020-12-17,07:55:00,DRY,12.90,5.50,62.5,776.00,5.8
2020-12-17,08:00:00,DRY,10.70,5.27,64.0,776.00,8.0
2020-12-17,08:05:00,DRY,12.00,5.50,61.0,776.50,10.4
2020-12-17,08:10:00,DRY,10.23,5.53,61.7,777.00,12.4
2020-12-17,08:15:00,DRY,12.40,5.65,60.0,776.00,14.7
2020-12-17,08:20:00,DRY,12.13,5.67,58.3,776.67,17.0
2020-12-17,08:25:00,DRY,9.60,5.50,61.0,776.00,18.8
2020-12-17,08:30:00,DRY,9.17,5.50,60.0,777.00,19.8
2020-12-17,08:35:00,DRY,12.00,5.40,61.0,777.00,22.1
2020-12-17,08:40:00,DRY,10.80,5.53,60.0,777.00,75.7
2020-12-17,08:45:00,DRY,7.90,5.50,60.5,777.00,166.8
2020-12-17,08:50:00,DRY,11.30,5.67,59.0,777.00,185.2
2020-12-17,08:55:00,DRY,10.05,5.60,60.0,777.00,203.6
2020-12-17,09:00:00,DRY,9.10,5.33,62.7,777.00,223.3
2020-12-17,09:05:00,DRY,8.80,5.25,62.0,777.00,243.3
2020-12-17,09:10:00,DRY,9.23,5.43,61.3,777.00,261.6
2020-12-17,09:15:00,DRY,9.00,5.25,62.5,777.00,280.5
2020-12-17,09:20:00,DRY,9.17,5.30,62.7,777.00,299.3
2020-12-17,09:25:00,DRY,9.45,5.20,63.0,777.00,318.5
2020-12-17,09:30:00,DRY,8.40,5.33,61.3,777.00,336.2
2020-12-17,09:35:00,DRY,7.35,5.40,61.5,777.00,354.2
2020-12-17,09:40:00,DRY,7.87,5.37,62.0,777.33,372.6
2020-12-17,09:45:00,DRY,8.50,5.30,62.5,777.00,389.4
2020-12-17,09:50:00,DRY,7.83,5.37,61.0,777.67,407.7
2020-12-17,09:55:00,DRY,9.25,5.50,61.0,778.00,424.3
2020-12-17,10:00:00,DRY,6.40,5.97,59.0,778.00,442.0
2020-12-17,10:05:00,DRY,8.15,5.75,61.5,778.00,458.8
2020-12-17,10:10:00,DRY,8.73,5.83,62.0,778.00,475.7
2020-12-17,10:15:00,DRY,7.10,5.70,62.0,778.00,491.5
2020-12-17,10:20:00,DRY,7.80,6.33,58.3,778.00,508.6
2020-12-17,10:25:00,DRY,7.35,6.45,58.0,778.00,525.8
2020-12-17,10:30:00,DRY,7.37,6.17,60.3,778.00,541.5
2020-12-17,10:35:00,DRY,8.15,6.30,58.5,778.00,560.0
2020-12-17,10:40:00,DRY,7.43,6.20,59.7,778.00,573.7
2020-12-17,10:45:00,DRY,7.95,6.20,58.5,778.00,563.8
2020-12-17,10:50:00,DRY,9.17,6.20,60.0,778.00,490.0
2020-12-17,10:55:00,DRY,6.25,6.55,58.0,778.00,414.8
2020-12-17,11:00:00,DRY,7.53,6.50,56.7,778.00,508.4
2020-12-17,11:05:00,DRY,9.20,6.25,56.5,778.00,487.8
2020-12-17,11:10:00,DRY,8.43,6.60,55.7,778.00,560.6
2020-12-17,11:15:00,DRY,7.10,7.15,52.5,778.00,617.9
2020-12-17,11:20:00,DRY,9.53,7.00,50.7,778.00,647.7
2020-12-17,11:25:00,DRY,9.05,7.50,49.5,778.00,643.0
2020-12-17,11:30:00,DRY,8.80,7.30,52.3,778.00,670.7
2020-12-17,11:35:00,DRY,9.30,7.90,52.5,778.00,688.0
2020-12-17,11:40:00,DRY,8.63,7.70,52.7,778.00,695.2
2020-12-17,11:45:00,DRY,6.70,7.50,53.0,778.00,703.0
2020-12-17,11:50:00,DRY,7.90,7.80,51.3,778.00,710.7
2020-12-17,11:55:00,DRY,6.55,7.75,52.0,778.00,717.0
2020-12-17,12:00:00,DRY,7.60,7.77,52.0,778.00,723.0
2020-12-17,12:05:00,DRY,7.35,7.90,51.5,778.00,729.4
2020-12-17,12:10:00,DRY,7.33,7.80,51.7,778.00,734.8
2020-12-17,12:15:00,DRY,6.30,7.75,53.0,778.00,739.4
2020-12-17,12:20:00,DRY,7.13,7.80,53.3,778.00,744.5
2020-12-17,12:25:00,DRY,6.00,7.85,52.5,778.00,748.8
2020-12-17,12:30:00,DRY,7.73,8.00,51.7,778.00,752.3
2020-12-17,12:35:00,DRY,6.40,8.00,51.5,778.00,755.4
2020-12-17,12:40:00,DRY,5.63,7.53,53.7,778.00,759.3
2020-12-17,12:45:00,DRY,6.60,7.35,56.0,778.00,760.6
2020-12-17,12:50:00,DRY,7.00,7.40,55.3,777.67,762.3
2020-12-17,12:55:00,DRY,6.60,7.35,54.5,777.50,764.2
2020-12-17,13:00:00,DRY,6.63,7.20,56.3,777.67,765.3
2020-12-17,13:05:00,DRY,8.25,7.00,58.0,777.50,765.8
2020-12-17,13:10:00,DRY,7.20,7.13,55.7,777.33,765.2
2020-12-17,13:15:00,DRY,7.40,7.40,54.5,777.00,765.4
2020-12-17,13:20:00,DRY,7.07,7.33,55.3,777.00,764.2
2020-12-17,13:25:00,DRY,7.20,7.65,52.5,777.00,762.0
2020-12-17,13:30:00,DRY,7.10,7.70,52.0,777.00,761.4